Regional Weather Roundup
Issued by NWS State College, PA

Home | Current Version | Previous Version | Text Only | Print | Product List | Glossary On
Versions: 1 2 3 4 5 6 7 8 9 10 11 12 13 14 15 16 17 18 19 20 21 22 23 24 25 26 27 28 29 30 31 32 33 34 35 36 37 38 39 40 41 42 43 44 45 46 47 48 49 50
000
ASUS41 KCTP 191610
RWRCTP

REGIONAL WEATHER ROUNDUP
NATIONAL WEATHER SERVICE STATE COLLEGE PA
1100 AM EST FRI JAN 19 2018

Note: "fair" indicates few or no clouds below 12,000 feet with no
significant weather and/or obstructions to visibility.

* = STATION THAT DOES NOT REPORT PRECIPITATION /E.G. RAIN...SNOW...ETC/
    THUNDER OR FOG.

PAZ002>004-007>009-013>016-020>023-029>032-191700-
WESTERN PENNSYLVANIA

CITY           SKY/WX    TMP DP  RH WIND       PRES   REMARKS
ERIE           FAIR      29  15  56 S20       30.00S
MEADVILLE      FAIR      24  14  65 S15       30.01S WCI  11
FRANKLIN*      FAIR      27  14  58 SW17G23   30.02F WCI  14
NEW CASTLE     FAIR      30  16  56 SW8       30.08F
BEAVER COUNTY  SUNNY     28  14  54 SW10G16   30.08S
BUTLER*        FAIR      30  15  53 SW13      30.09S
PITTSBURGH INT FAIR      29  13  51 SW10      30.09F
PITTSBURGH     FAIR      28  11  48 S17G26    30.10F
INDIANA*       SUNNY     28  14  54 W17G24    30.12F
LATROBE        SUNNY     28  12  50 SW18G24   30.13S
WASHINGTON CO* FAIR      32  15  49 SW10      30.15S
$$

PAZ004>006-010>012-017>019-024>028-033>037-041-042-045-046-049>053-191700-
CENTRAL PENNSYLVANIA

CITY           SKY/WX    TMP DP  RH WIND       PRES   REMARKS
BRADFORD       FAIR      24  13  62 SW17G26   29.94S WCI  11
DUBOIS         FAIR      25  12  58 SW14G30   30.01F WCI  13
CLEARFIELD     FAIR      29  13  51 SW12G21   30.04F
JOHNSTOWN      FAIR      29  13  51 W15       30.02S
ALTOONA        FAIR      33  16  49 SW12      30.06F
STATE COLLEGE  SUNNY     32  16  51 W14       30.05F
WILLIAMSPORT   FAIR      30  15  53 W18G28    30.06F
SELINSGROVE    FAIR      32  17  54 VRB5      30.08F
FT INDIANTOWN  FAIR      30  17  60 S3        30.07F
CAPITAL CITY   FAIR      37  17  44 W6        30.09F
HARRISBURG     PTSUNNY   35  20  54 NW7       30.09F
YORK             N/A     36  17  46 W3        30.09F
$$

PAZ038>040-043-044-047-048-054-055-060>062-067>071-191700-
EASTERN PENNSYLVANIA

CITY           SKY/WX    TMP DP  RH WIND       PRES   REMARKS
SCRANTON       FAIR      27  13  55 SW13      30.02F
MOUNT POCONO   FAIR      23  14  68 W21G29    29.94F WCI   8
ALLENTOWN      FAIR      29  17  61 SW7       30.06F
QUAKERTOWN*    FAIR      30  16  55 MISG      30.07F
READING        FAIR      31  20  63 CALM      30.08F
LANCASTER      FAIR      29  21  72 CALM      30.10S
COATESVILLE    FAIR      36  16  44 W10G17    30.09F
POTTSTOWN      FAIR      30  17  58 CALM      30.10F
BLUE BELL      FAIR      32  18  55 SW5       30.11F
DOYLESTOWN     FAIR      31  15  52 SW7       30.07F
WILLOW GROVE   NOT AVBL
NORTH PHILA    FAIR      38  17  42 W9        30.12F
PHILADELPHIA   PTSUNNY   39  14  36 W12       30.12F
$$




USA.gov is the U.S. government's official web portal to all federal, state and local government web resources and services.